Wind_Speed
9 9 9 9 9 9 9 9 9 9 9 9 9 10 10 11 12 13 14 14 14 14 13 14 14 14 15 15 15 14 15 14 14 14 14 15 15 15 16 16 17 18 18
10 10 10 10 10 10 10 10 10 10 10 9 10 11 12 12 13 13 14 15 15 15 15 15 15 15 16 16 15 15 15 15 15 16 16 16 16 16 17 18 18 18 18
11 11 11 11 11 11 11 11 11 11 11 11 11 12 13 13 14 14 15 15 15 15 16 16 16 16 16 16 16 16 16 17 17 17 17 17 18 18 19 19 20 20 20
13 12 12 13 12 12 12 12 11 12 13 13 13 13 14 15 15 15 15 16 16 16 16 16 16 16 16 17 17 17 17 18 18 18 18 19 19 20 20 21 21 21 21
14 14 14 13 13 13 13 13 13 14 14 14 14 14 15 15 16 16 17 17 17 17 17 17 16 17 17 17 18 18 18 19 19 19 19 19 20 20 21 21 21 21 21
16 15 15 14 14 14 14 14 15 15 15 15 15 15 15 16 16 17 17 17 17 17 18 18 18 18 18 18 19 19 19 20 20 20 20 20 21 21 22 22 22 22 22
17 17 16 15 15 15 15 16 16 17 17 17 17 17 17 17 17 17 17 18 18 18 19 19 19 18 19 19 20 20 20 21 21 21 21 22 22 23 23 23 23 23 23
19 19 18 18 17 17 18 18 19 18 19 18 18 18 19 19 19 19 18 18 18 19 19 19 19 19 20 20 20 21 21 22 22 23 23 24 24 24 24 24 25 25 25
21 21 20 20 19 18 19 20 20 21 20 20 19 20 20 20 21 20 20 20 20 20 21 21 21 21 22 22 22 22 22 23 24 24 24 25 25 25 25 26 26 26 26
22 22 22 21 20 20 21 21 22 23 23 21 21 22 22 22 22 22 22 22 22 22 22 23 23 23 23 23 24 24 24 24 25 25 25 26 27 27 27 27 27 27 27
23 24 24 23 22 22 23 24 24 25 24 23 23 24 24 24 24 25 25 24 24 24 24 25 24 24 24 25 25 25 26 26 26 26 26 27 27 28 28 29 29 29 28
25 25 25 24 24 24 25 26 26 26 26 26 26 26 26 26 26 27 26 26 26 26 26 26 26 26 26 26 27 27 27 27 28 27 28 29 29 29 29 29 29 30 30
27 27 27 27 27 27 27 27 27 27 28 27 27 28 28 28 28 28 28 28 28 28 28 28 27 28 27 28 28 28 29 29 28 28 29 29 30 30 29 29 30 31 31
30 29 29 29 29 28 29 29 29 29 30 29 29 29 29 30 30 30 30 31 30 30 31 30 29 29 29 29 29 29 29 29 29 29 30 30 30 30 30 30 31 31 32
31 31 31 31 30 31 30 31 31 31 31 31 30 30 31 31 31 31 32 33 33 33 32 31 31 31 31 31 31 31 31 30 30 31 31 31 31 30 31 32 32 33 33
33 32 32 32 32 32 31 32 32 32 32 32 32 32 32 33 33 33 33 34 34 33 32 32 32 31 32 32 32 32 32 32 31 31 31 31 31 30 30 31 32 33 33
33 32 32 32 32 32 32 33 34 34 33 33 33 33 33 34 34 34 34 33 33 33 33 33 32 33 33 33 33 32 32 32 32 31 31 32 32 32 32 32 32 33 33
33 33 33 33 33 33 33 34 35 33 33 33 33 34 34 35 36 35 35 34 33 33 33 33 33 34 34 34 33 33 32 31 32 32 32 33 32 32 32 32 33 33 32
34 34 34 34 34 33 34 34 34 34 33 34 34 35 35 36 36 35 34 33 33 33 33 33 34 34 34 33 32 32 32 32 32 32 32 32 32 32 32 32 33 32 31
34 34 34 34 34 34 34 34 34 34 35 35 36 36 36 36 36 35 34 34 34 34 35 35 35 34 33 32 32 32 32 32 32 32 33 33 33 33 32 31 31 30 29
34 34 35 34 34 35 35 35 35 36 36 36 36 37 37 36 35 35 35 35 36 35 35 34 34 33 32 32 32 32 32 32 33 33 33 33 33 32 31 30 30 29 29
35 36 36 35 35 35 36 36 37 37 37 37 36 36 36 36 36 35 34 35 35 34 34 34 33 31 31 31 31 32 33 33 33 34 33 32 31 30 29 29 29 29 29
35 35 35 35 36 36 36 37 38 38 37 37 36 35 35 35 34 33 33 34 33 33 33 33 32 31 31 32 32 33 34 33 32 32 30 30 29 29 28 29 29 30 29
36 36 35 35 36 37 37 38 38 37 37 36 36 34 34 34 33 33 33 32 32 32 32 31 31 31 31 32 32 32 31 31 31 30 29 29 28 28 28 29 29 29 29
36 36 36 36 37 37 38 38 38 36 36 36 35 34 33 33 33 32 32 31 32 32 31 30 30 30 30 31 31 30 30 29 29 28 28 27 27 27 28 28 28 29 28
36 37 37 37 38 37 37 37 37 37 37 36 34 34 33 32 32 32 31 30 31 31 29 29 29 29 29 29 29 28 28 28 28 27 27 27 26 27 28 28 28 28 28
Wind_Direction
327 334 334 334 334 333 332 332 330 331 333 337 336 333 331 331 332 332 332 330 331 331 331 332 331 330 328 326 326 325 324 321 320 319 317 317 314 310 305 302 300 299 297
312 317 322 327 328 329 328 326 327 326 329 327 326 326 324 323 325 327 327 326 326 326 327 327 327 326 326 326 326 324 323 321 319 317 316 315 313 311 310 307 307 303 300
302 306 310 315 318 322 325 326 323 320 321 319 317 318 320 320 321 323 323 323 323 323 324 324 324 325 325 324 324 322 321 319 317 316 315 314 312 312 312 311 311 306 302
296 299 302 305 311 315 317 318 317 318 318 316 313 314 315 317 318 320 321 322 320 320 321 323 322 322 322 321 321 319 319 319 317 314 313 312 312 312 311 311 309 308 306
292 296 299 300 304 309 311 312 313 315 314 312 311 311 311 313 315 316 316 317 317 317 319 320 319 319 320 320 321 319 318 318 317 315 314 313 313 312 311 311 310 309 308
286 291 295 297 299 301 305 307 309 310 310 310 309 310 312 313 314 314 315 315 315 315 316 317 317 317 318 317 318 318 317 317 316 315 315 314 313 313 312 311 310 310 309
281 286 289 292 292 294 296 299 302 305 307 308 308 309 311 312 312 313 313 313 313 314 316 317 317 316 317 317 317 317 317 316 316 317 315 315 314 313 312 311 310 309 307
278 281 284 286 288 289 291 296 300 302 304 304 305 305 305 308 310 311 311 312 312 313 314 315 315 314 314 316 316 315 315 315 314 314 314 314 313 312 311 311 309 307 305
275 277 279 281 283 286 288 291 295 297 297 299 300 302 304 304 305 307 310 312 310 311 312 313 312 312 313 313 313 313 312 313 313 313 313 313 312 311 310 309 308 307 307
272 275 276 277 280 282 286 288 291 293 293 294 296 299 300 300 302 304 305 307 308 309 310 310 310 311 310 311 312 312 311 310 311 311 311 311 311 310 308 307 307 307 306
269 274 276 278 280 283 285 287 289 292 291 293 295 296 296 298 300 302 302 302 303 304 306 306 307 307 308 308 309 310 311 310 310 309 309 309 309 309 308 307 307 306 306
268 270 273 276 279 281 283 285 287 289 290 293 293 294 294 296 298 299 301 301 301 302 303 304 304 304 304 306 306 307 308 308 309 309 309 308 308 309 309 310 309 308 307
267 269 271 273 278 281 282 284 287 290 291 292 293 294 293 293 294 295 297 299 299 300 302 302 301 303 304 305 305 305 306 307 307 307 308 307 307 307 307 308 309 309 307
267 268 270 273 276 279 281 283 285 287 290 291 292 292 291 292 293 293 294 296 296 298 300 300 300 302 303 303 304 304 305 306 306 306 307 306 305 306 306 306 307 307 307
266 269 270 273 277 276 278 280 282 284 286 289 290 290 292 292 293 292 292 293 295 297 297 297 298 299 300 301 302 302 303 304 304 304 305 305 305 306 306 306 306 306 307
265 268 271 274 277 277 277 279 281 282 284 287 288 289 291 293 293 292 292 293 294 295 295 296 297 297 298 300 301 301 302 302 302 302 302 303 305 306 307 307 307 307 307
266 268 270 273 275 277 277 278 279 280 282 285 286 288 290 292 293 293 294 294 293 293 293 294 295 296 298 299 300 300 300 300 300 300 302 303 303 304 306 308 308 308 308
265 267 269 272 275 277 278 280 279 280 281 282 284 286 289 291 291 292 292 293 293 292 293 293 294 295 296 297 298 298 298 298 299 300 302 303 303 304 306 308 308 307 307
265 266 269 271 273 276 278 280 281 282 283 283 285 286 289 290 289 289 290 291 291 292 292 292 293 294 294 296 297 297 297 297 298 300 301 302 304 304 306 307 308 307 306
264 266 269 270 273 275 277 279 281 282 283 284 285 286 288 288 288 288 288 289 289 290 290 292 292 292 292 292 294 296 297 298 299 300 300 301 302 303 305 306 307 307 307
265 267 268 270 273 274 277 280 281 281 283 284 285 286 287 288 289 289 288 288 288 289 290 291 291 292 292 292 293 294 296 297 298 299 299 300 302 303 304 305 306 307 308
264 266 268 270 273 275 276 280 282 282 283 284 285 285 285 287 288 288 288 288 288 287 288 290 292 293 294 294 295 296 297 298 298 298 298 300 301 303 304 306 308 309 309
264 266 269 272 273 274 277 280 282 282 282 284 284 284 285 286 287 287 287 287 288 288 288 289 290 291 292 294 295 297 297 297 297 298 300 301 302 303 304 306 308 309 309
266 267 270 272 273 275 278 279 280 282 281 282 284 283 284 285 286 286 286 285 287 288 288 288 289 291 292 293 294 296 297 297 297 298 299 300 301 302 303 305 307 309 309
267 269 270 272 274 276 277 279 279 281 282 283 283 283 284 284 285 286 284 284 285 287 287 287 288 290 291 292 294 296 297 298 298 297 298 299 300 302 304 306 307 309 309
269 271 273 274 275 276 277 278 280 282 283 282 282 283 283 282 282 284 285 286 286 285 285 286 288 290 292 294 296 296 297 298 298 298 298 298 299 301 303 304 306 308 309
Height
5898 5897 5896 5895 5894 5893 5892 5891 5890 5889 5888 5887 5886 5885 5884 5883 5882 5880 5879 5877 5875 5873 5871 5870 5868 5866 5864 5862 5860 5858 5856 5855 5853 5851 5849 5848 5846 5844 5843 5841 5840 5838 5836
5897 5896 5895 5894 5893 5892 5891 5890 5889 5888 5887 5886 5885 5884 5883 5882 5880 5879 5877 5875 5873 5872 5870 5868 5866 5864 5862 5860 5858 5856 5854 5852 5851 5848 5846 5844 5842 5841 5839 5837 5835 5834 5832
5895 5894 5894 5893 5892 5891 5890 5889 5888 5886 5885 5884 5883 5882 5881 5880 5878 5876 5875 5873 5871 5869 5867 5865 5864 5861 5859 5857 5855 5853 5851 5849 5847 5846 5843 5841 5839 5837 5835 5833 5831 5829 5827
5893 5892 5892 5891 5890 5889 5888 5887 5886 5885 5884 5883 5881 5880 5879 5877 5876 5874 5872 5871 5869 5867 5865 5863 5861 5859 5857 5855 5852 5850 5848 5846 5844 5842 5840 5838 5835 5833 5831 5828 5826 5824 5822
5890 5890 5889 5888 5888 5887 5886 5885 5884 5883 5882 5880 5879 5878 5876 5875 5873 5872 5870 5868 5866 5864 5862 5860 5858 5856 5854 5851 5849 5847 5845 5843 5840 5838 5836 5834 5831 5829 5827 5824 5822 5819 5817
5887 5886 5886 5885 5885 5884 5883 5883 5882 5881 5879 5878 5876 5875 5873 5872 5870 5868 5867 5865 5863 5861 5859 5857 5855 5853 5850 5848 5846 5844 5841 5839 5836 5834 5832 5829 5827 5824 5822 5819 5816 5814 5812
5883 5883 5882 5882 5882 5881 5880 5879 5878 5877 5876 5875 5874 5872 5870 5869 5867 5865 5863 5861 5859 5857 5855 5853 5851 5849 5847 5844 5842 5840 5837 5835 5833 5830 5828 5825 5822 5819 5817 5814 5811 5808 5806
5879 5878 5878 5878 5878 5877 5877 5876 5875 5874 5873 5872 5870 5869 5867 5865 5863 5861 5859 5857 5855 5854 5851 5849 5847 5845 5842 5840 5838 5836 5833 5830 5828 5825 5823 5820 5817 5814 5811 5808 5805 5802 5799
5874 5873 5873 5873 5873 5873 5873 5872 5871 5870 5869 5868 5866 5865 5863 5861 5859 5857 5855 5854 5852 5850 5848 5845 5843 5840 5838 5836 5833 5831 5828 5825 5822 5820 5817 5814 5811 5808 5805 5802 5798 5796 5793
5868 5868 5868 5867 5867 5867 5867 5867 5866 5865 5863 5862 5861 5860 5858 5856 5855 5853 5851 5849 5847 5845 5843 5841 5838 5836 5833 5830 5828 5825 5823 5820 5817 5814 5811 5808 5805 5801 5798 5795 5792 5788 5785
5862 5862 5862 5862 5862 5862 5862 5861 5860 5859 5858 5857 5856 5854 5852 5851 5849 5847 5845 5844 5842 5840 5838 5835 5833 5830 5827 5825 5822 5819 5817 5814 5811 5808 5805 5802 5798 5795 5792 5788 5785 5781 5778
5855 5856 5856 5856 5856 5856 5855 5855 5854 5853 5852 5851 5849 5847 5846 5844 5843 5841 5839 5837 5835 5833 5831 5829 5827 5824 5821 5819 5816 5813 5810 5807 5804 5801 5798 5795 5792 5788 5785 5781 5777 5774 5771
5848 5849 5849 5849 5849 5848 5848 5847 5847 5846 5845 5844 5843 5841 5839 5838 5836 5835 5833 5830 5828 5826 5824 5822 5820 5817 5814 5812 5809 5806 5803 5800 5797 5794 5791 5788 5784 5781 5778 5774 5771 5767 5763
5840 5841 5841 5842 5842 5841 5841 5840 5839 5839 5838 5836 5835 5833 5832 5830 5828 5826 5825 5823 5821 5819 5816 5814 5812 5810 5807 5804 5802 5799 5796 5793 5790 5787 5783 5780 5777 5773 5770 5767 5763 5760 5756
5832 5833 5833 5833 5833 5833 5832 5832 5831 5831 5830 5829 5827 5825 5824 5822 5820 5818 5816 5815 5813 5811 5808 5806 5804 5802 5799 5796 5794 5791 5788 5785 5782 5779 5776 5772 5769 5766 5762 5758 5755 5751 5747
5823 5824 5825 5825 5824 5824 5824 5823 5822 5822 5821 5820 5818 5817 5815 5814 5811 5810 5808 5806 5804 5802 5800 5798 5795 5793 5791 5788 5785 5782 5780 5777 5773 5770 5767 5764 5761 5758 5754 5750 5746 5743 5739
5815 5816 5816 5816 5815 5815 5814 5814 5813 5813 5812 5811 5809 5808 5806 5805 5803 5801 5799 5797 5795 5793 5791 5789 5787 5784 5782 5779 5776 5773 5770 5767 5764 5762 5759 5756 5752 5749 5745 5742 5738 5734 5730
5805 5806 5806 5806 5806 5806 5805 5804 5803 5802 5802 5801 5800 5799 5797 5796 5794 5792 5790 5788 5786 5784 5782 5780 5778 5775 5772 5770 5767 5764 5761 5758 5756 5753 5750 5747 5743 5740 5736 5733 5729 5725 5722
5796 5796 5796 5797 5796 5796 5796 5794 5793 5793 5792 5792 5791 5789 5788 5786 5784 5782 5780 5779 5777 5775 5773 5771 5769 5766 5763 5760 5758 5755 5752 5750 5747 5744 5741 5738 5735 5731 5728 5724 5720 5717 5713
5785 5786 5787 5787 5786 5786 5786 5785 5784 5784 5783 5782 5781 5779 5778 5776 5774 5772 5771 5769 5767 5766 5764 5762 5759 5757 5754 5751 5749 5746 5743 5741 5738 5735 5733 5730 5726 5723 5719 5715 5712 5708 5705
5776 5776 5777 5777 5777 5777 5776 5775 5774 5773 5773 5771 5770 5769 5767 5766 5764 5762 5761 5759 5758 5756 5754 5752 5749 5747 5744 5742 5740 5737 5735 5732 5729 5727 5724 5721 5718 5714 5711 5707 5704 5700 5697
5766 5766 5767 5766 5766 5766 5766 5765 5764 5763 5762 5761 5760 5758 5756 5755 5754 5753 5751 5750 5748 5746 5744 5742 5740 5738 5736 5733 5731 5729 5726 5723 5721 5718 5715 5712 5709 5706 5702 5699 5696 5692 5689
5756 5756 5756 5756 5756 5756 5756 5755 5754 5752 5751 5750 5748 5747 5745 5744 5743 5743 5741 5740 5738 5736 5735 5733 5731 5729 5727 5725 5722 5720 5717 5714 5711 5708 5705 5703 5700 5697 5694 5691 5688 5685 5681
5746 5746 5746 5746 5746 5746 5745 5744 5743 5741 5740 5739 5737 5736 5735 5734 5733 5732 5731 5730 5728 5727 5725 5724 5722 5720 5718 5715 5713 5710 5707 5705 5702 5699 5697 5694 5692 5689 5686 5683 5680 5677 5673
5735 5735 5735 5736 5736 5735 5734 5733 5732 5730 5729 5729 5727 5726 5725 5724 5723 5722 5721 5720 5719 5717 5716 5714 5712 5710 5708 5706 5704 5701 5699 5696 5694 5691 5688 5686 5683 5681 5678 5676 5672 5669 5665
5725 5725 5725 5725 5725 5724 5724 5723 5722 5721 5720 5718 5717 5716 5715 5715 5714 5713 5711 5710 5709 5708 5706 5704 5703 5701 5699 5697 5695 5693 5690 5688 5686 5683 5681 5678 5676 5673 5671 5668 5664 5661 5657